Home   Weather   Fort Walton Beach   Past weeks
Flag for USA

Past Weather in Fort Walton Beach, Florida, USA — Yesterday and Last 2 Weeks

Now
52 °F

Clear.


Feels Like: 48 °F
Forecast: 71 / 51 °F
Wind: 13 mph from Northwest

Location: Hurlburt Field

Current Time: Apr 20, 2019 at 4:05:49 am

Latest Report: Apr 20, 2019 at 2:56 am


Visibility: 10 mi

Pressure: 29.88 "Hg

Humidity: 80%

Dew Point: 46 °F

Location of Fort Walton BeachLocation

Past Weather in Fort Walton Beach — Graph

°F

Fort Walton Beach Temperature Yesterday

Maximum temperature yesterday: 73 °F (at 12:06 am)
Minimum temperature yesterday: 54 °F (at 11:56 pm)
Average temperature yesterday: 65 °F

High & Low Weather Summary for the Past Weeks

 TemperatureHumidityPressure
High82 °F (Apr 10, 11:59 am)100% (Apr 5, 2:32 am)30.24 "Hg (Apr 5, 2:32 am)
Low47 °F (Apr 15, 5:56 am)29% (Apr 15, 3:55 pm)29.57 "Hg (Apr 19, 1:31 am)
Average69 °F83%29.93 "Hg
* Reported Apr 5 2:32 am — Apr 20 2:56 am, Fort Walton Beach. Weather by CustomWeather, © 2019

Note: Actual official high and low records may vary slightly from our data, if they occured in-between our weather recording intervals... More about our weather records

Advertising

Fort Walton Beach Weather History for the Previous 24 Hours

Scroll right to see more
 ConditionsComfort  
Time TempWeatherWind HumidityBarometerVisibility
2:56 am
Sat, Apr 20
52 °FClear.13 mph80%29.88 "Hg10 mi
1:56 am51 °FPassing clouds.7 mph79%29.88 "Hg10 mi
12:56 am53 °FPassing clouds.10 mph74%29.90 "Hg10 mi
11:56 pm
Fri, Apr 19
54 °FClear.9 mph78%29.88 "Hg10 mi
10:56 pm55 °FPassing clouds.No wind69%29.88 "Hg10 mi
9:56 pm56 °FPassing clouds.No wind66%29.86 "Hg10 mi
8:58 pm56 °FPassing clouds.3 mph62%29.83 "Hg10 mi
7:57 pm59 °FPassing clouds.No wind53%29.80 "Hg10 mi
6:59 pm61 °FPassing clouds.8 mph48%29.76 "Hg10 mi
5:55 pm63 °FBroken clouds.15 mph47%29.75 "Hg10 mi
4:56 pm65 °FScattered clouds.10 mph47%29.72 "Hg10 mi
3:55 pm65 °FBroken clouds.13 mph46%29.71 "Hg10 mi
2:55 pm65 °FPartly sunny.3 mph49%29.71 "Hg10 mi
1:56 pm63 °FBroken clouds.16 mph67%29.71 "Hg10 mi
12:59 pm62 °FPartly sunny.20 mph74%29.72 "Hg10 mi
11:57 am60 °FBroken clouds.13 mph87%29.71 "Hg10 mi
10:56 am62 °FLight rain. Mostly cloudy.14 mph87%29.70 "Hg10 mi
9:56 am63 °FPartly sunny.14 mph94%29.67 "Hg10 mi
8:56 am66 °FDrizzle. Mostly cloudy.8 mph94%29.62 "Hg10 mi
7:56 am65 °FPassing clouds.No wind83%29.60 "Hg10 mi
7:16 am64 °FPassing clouds.12 mph88%29.60 "Hg10 mi
6:56 am65 °FPartly sunny.10 mph87%29.59 "Hg10 mi
6:27 am65 °FMostly cloudy.10 mph88%29.59 "Hg10 mi
4:56 am69 °FLight rain. Fog.10 mph90%29.58 "Hg6 mi
4:22 am70 °FMostly cloudy.13 mph88%29.58 "Hg8 mi
Weather by CustomWeather, © 2019

See weather overview